CDT,Max TemperatureF,Mean TemperatureF,Min TemperatureF,Max Dew PointF,MeanDew PointF,Min DewpointF,Max Humidity, Mean Humidity, Min Humidity, Max Sea Level PressureIn, Mean Sea Level PressureIn, Min Sea Level PressureIn, Max VisibilityMiles, Mean VisibilityMiles, Min VisibilityMiles, Max Wind SpeedMPH, Mean Wind SpeedMPH, Max Gust SpeedMPH,PrecipitationIn, CloudCover, Events, WindDirDegrees
2012-10-1,75,63,50,49,43,34,80,56,32,29.90,29.87,29.83,10,10,10,18,8,25,0.00,0,,8
2012-10-2,75,61,47,50,43,36,66,52,38,29.94,29.90,29.85,10,10,9,14,5,17,0.00,0,,356
2012-10-3,77,61,45,49,42,36,80,52,23,29.96,29.92,29.86,10,10,10,18,6,29,0.00,0,,192
2012-10-4,59,52,44,47,40,32,86,67,47,30.27,30.15,29.95,10,10,6,23,10,30,0.22,3,Rain-Thunderstorm,310
2012-10-5,49,41,33,33,30,26,75,60,45,30.32,30.28,30.23,10,10,10,16,8,22,T,4,,317
2012-10-6,47,37,27,29,25,22,81,63,45,30.35,30.31,30.27,10,10,10,16,8,21,0.00,2,,318
2012-10-7,54,40,26,28,25,21,92,60,28,30.31,30.22,30.11,10,10,10,15,7,25,0.00,0,,248
2012-10-8,64,49,34,36,32,26,82,58,34,30.10,30.00,29.90,10,10,10,26,14,35,0.00,0,,202
2012-10-9,60,47,34,42,34,25,70,56,42,30.13,29.96,29.87,10,10,10,20,10,25,T,2,Rain,274
2012-10-10,59,45,30,31,27,25,78,54,30,30.27,30.19,30.13,10,10,10,16,8,22,0.00,0,,255
2012-10-11,71,55,39,47,34,27,70,54,37,30.31,30.13,30.05,10,10,10,24,12,32,0.00,2,,211
2012-10-12,58,48,38,45,33,22,77,55,32,30.39,30.25,30.08,10,10,10,20,9,25,T,6,Rain-Thunderstorm,100
2012-10-13,69,62,54,64,58,46,93,83,72,30.04,29.84,29.63,10,5,1,26,13,35,1.12,8,Rain-Thunderstorm,175
2012-10-14,65,56,46,63,52,39,93,70,46,29.96,29.71,29.52,10,9,4,30,13,38,0.43,5,Rain-Thunderstorm,288
2012-10-15,69,55,40,44,40,36,82,60,37,30.02,29.95,29.85,10,10,10,9,4,14,0.00,0,,169
2012-10-16,76,64,51,51,47,43,83,61,38,29.82,29.58,29.46,10,10,10,25,12,32,0.00,0,,202
2012-10-17,65,58,50,54,45,31,78,60,41,29.56,29.47,29.39,10,10,9,29,12,35,0.06,5,Rain,257
2012-10-18,51,47,42,41,33,25,89,65,41,29.54,29.50,29.48,10,10,7,32,21,41,0.16,6,Rain,265
2012-10-19,49,46,42,43,40,39,92,82,71,29.81,29.69,29.52,10,10,4,24,15,33,0.02,8,Rain,303
2012-10-20,62,51,40,43,41,39,93,70,46,29.88,29.82,29.77,10,10,10,10,5,14,0.00,3,,211
2012-10-21,79,63,47,62,53,42,86,70,54,29.86,29.81,29.76,10,10,10,18,8,26,0.00,2,,147
2012-10-22,78,71,64,67,64,60,93,77,60,29.82,29.78,29.75,10,9,3,25,9,35,0.41,6,Rain-Thunderstorm,171
2012-10-23,75,69,62,64,63,57,93,81,68,29.82,29.76,29.69,10,9,2,20,11,24,0.02,6,,175
2012-10-24,79,74,68,65,64,61,87,75,62,29.80,29.74,29.67,10,10,10,23,13,33,0.00,6,,175
2012-10-25,73,55,37,61,43,26,93,79,64,30.32,29.86,29.59,10,9,2,28,18,36,0.09,8,Rain-Thunderstorm,314
2012-10-26,45,37,28,28,26,24,85,67,49,30.48,30.42,30.32,10,10,10,18,9,25,0.00,2,,340
2012-10-27,44,35,25,27,25,22,85,67,49,30.44,30.38,30.30,10,10,10,7,2,10,0.00,2,,352
2012-10-28,49,38,26,26,23,20,85,62,38,30.38,30.33,30.28,10,10,10,7,2,10,0.00,0,,107
2012-10-29,51,43,34,29,26,20,75,59,42,30.33,30.27,30.18,10,10,10,16,6,21,0.00,4,,136
2012-10-30,52,41,29,29,27,25,85,60,35,30.17,30.09,30.03,10,10,10,12,6,16,0.00,3,,33
2012-10-31,56,44,32,31,28,22,75,54,32,30.08,30.03,29.99,10,8,2,12,6,15,0.00,1,,325